Location: Daouli
(14.8671°N, 3.2030°W)
Time: 23:54:14
(UTC+00:00)

CZ-2C R/B - Pass Details

Date: 29 October 2020
Orbit: 391 x 586 km, 35.0° (Epoch: 03 December)

Event Time Altitude Azimuth Distance (km) Brightness Sun altitude
Rises 19:36:42 0° 237° (WSW) 2,749 5.9 -27.3°
Reaches altitude 10° 19:39:02 10° 237° (WSW) 1,830 4.8 -27.9°
Enters shadow 19:41:35 35° 239° (WSW) 886 2.8 -28.5°
